Погода в Ермаках

Россия / Тюменская область     57°15′18″N   70°56′14″E
темп.,
°C
ветер,
м/с
пор.,
м/с
влажн.,
%
обл.,
%
осадки,
мм/ч
давл.,
гПа
погр.,
м
31 июля, сб
сб3123:00+14ююв41294100 1.8 1005355
02:00+13ююз2897100 1.8 1004278
05:00+13юз31099100 2.5 1004366
08:00+15зюз3797100 0.0 1004428
11:00+18зюз358693 0.1 1006632
14:00+19зсз358857 0.9 1007643
17:00+20сз357198 1.1 10081087
20:00+17сз23826 0.0 101055
1 августа, вс
вс123:00+13с2296100 0.0 101127
02:00+12в1196100 0.0 101110
05:00+12ююв229718 0.0 101235
08:00+18ююв2476100 0.0 1011392
11:00+19ююв2477100 0.1 1010360
14:00+20ююв368258 0.3 1009483
17:00+24ююв3667100 0.3 10071084
20:00+19ююв3109654 3.3 1006286
2 августа, пн
пн223:00+17ююз279922 7.5 1005186
02:00+16з289821 0.0 1005185
05:00+15з299811 0.0 1005220
08:00+19з37870 0.0 1006371
11:00+23зсз58530 0.0 10061271
14:00+25зсз574661 0.0 10062189
17:00+21сз3866100 0.0 1007343
20:00+19зсз21074100 0.0 1009378
3 августа, вт
вт323:00+18зсз31067100 0.0 1009291
02:00+16зсз27741 0.0 1010164
05:00+16з2476100 0.0 1010103
08:00+18з3875100 0.0 1011276
11:00+22зсз356096 0.0 1011600
14:00+25сз2443100 0.0 10102450
17:00+21зсз128144 0.5 101174
20:00+18зсз3688100 1.0 101291
4 августа, ср
ср423:00+16зсз22894 1.1 101217
02:00+14сз11940 0.0 101211
05:00+14з119616 0.0 101311
08:00+20с007830 0.0 1013226
11:00+25з115131 0.0 10131090
14:00+27з22437 0.0 10121941
17:00+26зюз1254100 0.0 10111316
20:00+21ссз2273100 0.0 101146